When you browse on this site, cookies collect data to enhance your experience and personalize the content and advertising you see.
Visit our Privacy Policy to learn more. By continuing to use the site, you agree to this use of cookies and data.
  • Em Portugal
  • Lista de países
  • Para 7 dias
  • Temperatura da água
  • Mapa do tempo
  • Widgets de tempo
  • user-avatar
    Iniciar Sessão

    Previsão horária em Vilnius

    Hoje, 8 Abril, Quarta-feira

    Tempo Temperatura Precipitação Vento Pressão Humidade
    00:00 +7°C° 0 mm 5 m/s 758 mmHg 76%
    01:00 +6°C° 0 mm 4 m/s 758 mmHg 78%
    02:00 +5°C° 0 mm 4 m/s 759 mmHg 80%
    03:00 +5°C° 0 mm 4 m/s 759 mmHg 82%
    04:00 +4°C° 0 mm 4 m/s 759 mmHg 85%
    05:00 +3°C° 0 mm 3 m/s 759 mmHg 88%
    06:00 +4°C° 0 mm 3 m/s 759 mmHg 83%
    07:00 +5°C° 0 mm 4 m/s 759 mmHg 79%
    08:00 +6°C° 0 mm 4 m/s 760 mmHg 74%
    09:00 +7°C° 0 mm 4 m/s 759 mmHg 66%
    10:00 +8°C° 0 mm 4 m/s 759 mmHg 57%
    11:00 +11°C° 0 mm 4 m/s 759 mmHg 49%
    12:00 +11°C° 0 mm 4 m/s 759 mmHg 46%
    13:00 +12°C° 0 mm 4 m/s 759 mmHg 43%
    14:00 +13°C° 0 mm 4 m/s 759 mmHg 40%
    15:00 +13°C° 0 mm 3 m/s 758 mmHg 42%
    16:00 +13°C° 0 mm 3 m/s 758 mmHg 43%
    17:00 +14°C° 0 mm 2 m/s 757 mmHg 45%
    18:00 +12°C° 0 mm 1 m/s 757 mmHg 51%
    19:00 +10°C° 0 mm 1 m/s 757 mmHg 57%
    20:00 +8°C° 0 mm 0 m/s 756 mmHg 63%
    21:00 +8°C° 0 mm 1 m/s 756 mmHg 65%
    22:00 +8°C° 0 mm 1 m/s 756 mmHg 66%
    23:00 +6°C° 0 mm 2 m/s 755 mmHg 68%

    Amanhã, 9 Abril, Quinta-feira

    Tempo Temperatura Precipitação Vento Pressão Humidade
    00:00 +6°C° 0 mm 2 m/s 755 mmHg 68%
    01:00 +5°C° 0 mm 3 m/s 754 mmHg 69%
    02:00 +5°C° 0 mm 3 m/s 754 mmHg 69%
    03:00 +5°C° 0 mm 3 m/s 753 mmHg 70%
    04:00 +5°C° 0 mm 3 m/s 752 mmHg 70%
    05:00 +5°C° 0 mm 3 m/s 752 mmHg 70%
    06:00 +5°C° 0 mm 4 m/s 751 mmHg 68%
    07:00 +6°C° 0 mm 4 m/s 751 mmHg 66%
    08:00 +7°C° 0 mm 5 m/s 750 mmHg 64%
    09:00 +9°C° 0 mm 5 m/s 749 mmHg 62%
    10:00 +12°C° 0 mm 5 m/s 749 mmHg 60%
    11:00 +13°C° 0 mm 5 m/s 748 mmHg 58%
    12:00 +12°C° 0.7 mm 5 m/s 748 mmHg 68%
    13:00 +10°C° 0.7 mm 5 m/s 747 mmHg 78%
    14:00 +9°C° 0.7 mm 5 m/s 747 mmHg 88%
    15:00 +9°C° 0.4 mm 5 m/s 747 mmHg 83%
    16:00 +10°C° 0.4 mm 5 m/s 747 mmHg 78%
    17:00 +10°C° 0.4 mm 6 m/s 747 mmHg 73%
    18:00 +9°C° 0.1 mm 5 m/s 747 mmHg 77%
    19:00 +8°C° 0.1 mm 5 m/s 748 mmHg 81%
    20:00 +7°C° 0.1 mm 4 m/s 748 mmHg 85%
    21:00 +5°C° 0.1 mm 4 m/s 749 mmHg 82%
    22:00 +4°C° 0.1 mm 4 m/s 749 mmHg 80%
    23:00 +3°C° 0.1 mm 4 m/s 750 mmHg 77%

    Depois de amanhã, 10 Abril, Sexta-feira

    Tempo Temperatura Precipitação Vento Pressão Humidade
    00:00 +2°C° 0 mm 3 m/s 750 mmHg 78%
    01:00 +1°C° 0 mm 3 m/s 750 mmHg 80%
    02:00 0°C° 0 mm 3 m/s 750 mmHg 81%
    03:00 0°C° 0 mm 3 m/s 751 mmHg 83%
    04:00 0°C° 0 mm 3 m/s 751 mmHg 84%
    05:00 -1°C° 0 mm 3 m/s 751 mmHg 85%
    06:00 -1°C° 0 mm 4 m/s 752 mmHg 80%
    07:00 0°C° 0 mm 4 m/s 752 mmHg 75%
    08:00 +1°C° 0 mm 4 m/s 752 mmHg 69%
    09:00 +2°C° 0 mm 5 m/s 753 mmHg 63%
    10:00 +5°C° 0 mm 5 m/s 753 mmHg 57%
    11:00 +6°C° 0 mm 5 m/s 753 mmHg 51%
    12:00 +7°C° 0 mm 5 m/s 753 mmHg 47%
    13:00 +7°C° 0 mm 5 m/s 753 mmHg 44%
    14:00 +8°C° 0 mm 5 m/s 753 mmHg 41%
    15:00 +8°C° 0 mm 5 m/s 753 mmHg 42%
    16:00 +7°C° 0 mm 5 m/s 753 mmHg 44%
    17:00 +7°C° 0 mm 5 m/s 753 mmHg 45%
    18:00 +6°C° 0 mm 4 m/s 753 mmHg 53%
    19:00 +5°C° 0 mm 3 m/s 754 mmHg 61%
    20:00 +4°C° 0 mm 2 m/s 754 mmHg 70%
    21:00 +4°C° 0 mm 2 m/s 754 mmHg 70%
    22:00 +3°C° 0 mm 2 m/s 754 mmHg 70%
    23:00 +2°C° 0 mm 2 m/s 755 mmHg 71%

    11 Abril, Sábado

    Tempo Temperatura Precipitação Vento Pressão Humidade
    00:00 +1°C° 0 mm 2 m/s 755 mmHg 70%
    01:00 -1°C° 0 mm 2 m/s 755 mmHg 70%
    02:00 -1°C° 0 mm 2 m/s 755 mmHg 70%
    03:00 -2°C° 0 mm 2 m/s 756 mmHg 72%
    04:00 -2°C° 0 mm 2 m/s 756 mmHg 75%
    05:00 -2°C° 0 mm 2 m/s 757 mmHg 77%
    06:00 -1°C° 0 mm 2 m/s 757 mmHg 70%
    07:00 0°C° 0 mm 3 m/s 757 mmHg 62%
    08:00 +1°C° 0 mm 3 m/s 757 mmHg 55%
    09:00 +3°C° 0 mm 3 m/s 757 mmHg 51%
    10:00 +4°C° 0 mm 3 m/s 757 mmHg 46%
    11:00 +5°C° 0 mm 3 m/s 758 mmHg 41%
    12:00 +7°C° 0 mm 3 m/s 758 mmHg 41%
    13:00 +7°C° 0 mm 3 m/s 757 mmHg 41%
    14:00 +8°C° 0 mm 3 m/s 757 mmHg 40%
    15:00 +8°C° 0 mm 3 m/s 757 mmHg 41%
    16:00 +7°C° 0 mm 2 m/s 757 mmHg 42%
    17:00 +7°C° 0 mm 2 m/s 756 mmHg 43%
    18:00 +6°C° 0 mm 2 m/s 756 mmHg 49%
    19:00 +5°C° 0 mm 1 m/s 756 mmHg 54%
    20:00 +3°C° 0 mm 0 m/s 756 mmHg 60%
    21:00 +4°C° 0 mm 1 m/s 756 mmHg 61%
    22:00 +3°C° 0 mm 1 m/s 756 mmHg 62%
    23:00 +2°C° 0 mm 2 m/s 756 mmHg 63%

    12 Abril, Domingo

    Tempo Temperatura Precipitação Vento Pressão Humidade
    00:00 +2°C° 0 mm 2 m/s 756 mmHg 63%
    01:00 +1°C° 0 mm 3 m/s 755 mmHg 64%
    02:00 0°C° 0 mm 4 m/s 755 mmHg 64%
    03:00 0°C° 0 mm 4 m/s 754 mmHg 62%
    04:00 0°C° 0 mm 4 m/s 754 mmHg 60%
    05:00 0°C° 0 mm 5 m/s 753 mmHg 58%
    06:00 +1°C° 0 mm 5 m/s 753 mmHg 57%
    07:00 +2°C° 0 mm 6 m/s 752 mmHg 55%
    08:00 +3°C° 0 mm 6 m/s 752 mmHg 53%
    09:00 +5°C° 0 mm 6 m/s 751 mmHg 52%
    10:00 +8°C° 0 mm 6 m/s 751 mmHg 50%
    11:00 +9°C° 0 mm 7 m/s 750 mmHg 48%
    12:00 +10°C° 0 mm 6 m/s 750 mmHg 48%
    13:00 +11°C° 0 mm 6 m/s 749 mmHg 49%
    14:00 +13°C° 0 mm 6 m/s 749 mmHg 49%
    15:00 +13°C° 0 mm 5 m/s 748 mmHg 50%
    16:00 +13°C° 0 mm 5 m/s 748 mmHg 50%
    17:00 +13°C° 0 mm 5 m/s 747 mmHg 50%
    18:00 +12°C° 0 mm 5 m/s 747 mmHg 55%
    19:00 +11°C° 0 mm 4 m/s 746 mmHg 60%
    20:00 +10°C° 0 mm 3 m/s 746 mmHg 65%
    21:00 +10°C° 0 mm 4 m/s 746 mmHg 65%
    22:00 +10°C° 0 mm 4 m/s 745 mmHg 66%
    23:00 +10°C° 0 mm 4 m/s 745 mmHg 66%

    13 Abril, Segunda-feira

    Tempo Temperatura Precipitação Vento Pressão Humidade
    00:00 +8°C° 0 mm 4 m/s 745 mmHg 68%
    01:00 +8°C° 0 mm 4 m/s 744 mmHg 69%
    02:00 +7°C° 0 mm 4 m/s 744 mmHg 71%
    03:00 +7°C° 0 mm 4 m/s 743 mmHg 73%
    04:00 +6°C° 0 mm 4 m/s 743 mmHg 74%
    05:00 +6°C° 0 mm 4 m/s 742 mmHg 76%
    06:00 +7°C° 0 mm 4 m/s 742 mmHg 73%
    07:00 +8°C° 0 mm 4 m/s 742 mmHg 71%
    08:00 +10°C° 0 mm 4 m/s 741 mmHg 68%
    09:00 +12°C° 0 mm 5 m/s 741 mmHg 62%
    10:00 +14°C° 0 mm 5 m/s 740 mmHg 56%
    11:00 +16°C° 0 mm 6 m/s 739 mmHg 50%
    12:00 +16°C° 0.3 mm 6 m/s 739 mmHg 51%
    13:00 +17°C° 0.3 mm 6 m/s 738 mmHg 52%
    14:00 +17°C° 0.3 mm 7 m/s 738 mmHg 53%
    15:00 +17°C° 0.3 mm 6 m/s 737 mmHg 56%
    16:00 +16°C° 0.3 mm 6 m/s 737 mmHg 59%
    17:00 +16°C° 0.3 mm 5 m/s 736 mmHg 62%
    18:00 +15°C° 0.3 mm 5 m/s 735 mmHg 66%
    19:00 +14°C° 0.3 mm 5 m/s 735 mmHg 69%
    20:00 +13°C° 0.3 mm 4 m/s 734 mmHg 73%
    21:00 +12°C° 1 mm 4 m/s 734 mmHg 79%
    22:00 +11°C° 1 mm 4 m/s 734 mmHg 85%
    23:00 +11°C° 1 mm 3 m/s 734 mmHg 91%
    Mostrar mais